Back to catalog

NOAA 16 DEB

AliveSSO
NORAD 42382·DEBRIS·🇺🇸 United States

Launched Sep 21, 2000 from Vandenberg Space Force Base

Loading…

Next Passes (next 24 hours)

TLE

FreshSource: Space-Track

Epoch: Sep 14, 2026, 05:52 UTC

1 42382U 00055SA  26257.24505404  .00003286  00000-0  12976-2 0  9991
2 42382  98.8969   1.3180 0035263 278.9935  80.7256 14.29407363541811

Track NOAA 16 DEB in real time with AllMySat

Download on the App Store